EW4723 Weather Reports


Display with metric or nautical units.
time (UTC)temp
F
wind
direction
speed
MPH
gust
MPH
rain 1hr
in
rain 24hr
in
rain mn
in
humidity
%
barometer
mb
20260503220023 74 292 1.0 6.0 0.00 0.00 0.00 41 1011.5
20260503215813 73 286 1.0 7.0 0.00 0.00 0.00 42 1011.6
20260503215010 74 19 2.0 7.0 0.00 0.00 0.00 44 1011.6
20260503214752 73 232 2.0 7.0 0.00 0.00 0.00 42 1011.6
20260503213958 73 245 2.0 7.0 0.00 0.00 0.00 42 1011.7
20260503213452 73 334 1.0 6.0 0.00 0.00 0.00 42 1011.8
20260503212946 74 167 1.0 4.0 0.00 0.00 0.00 46 1011.9
20260503212440 74 292 1.0 4.0 0.00 0.00 0.00 45 1011.8
20260503211935 74 318 1.0 7.0 0.00 0.00 0.00 46 1011.8
20260503211434 72 344 1.0 7.0 0.00 0.00 0.00 50 1011.9
20260503210933 72 254 1.0 6.0 0.00 0.00 0.00 50 1012.0
20260503210434 72 246 1.0 6.0 0.00 0.00 0.00 50 1011.9
20260503205931 71 257 1.0 5.0 0.00 0.00 0.00 49 1012.1
20260503205433 70 318 2.0 5.0 0.00 0.00 0.00 50 1012.1
20260503204930 70 272 1.0 4.0 0.00 0.00 0.00 53 1012.2
20260503204433 71 0 0.0 3.0 0.00 0.00 0.00 52 1012.2
20260503203933 71 355 1.0 7.0 0.00 0.00 0.00 51 1012.2
20260503203429 69 275 2.0 7.0 0.00 0.00 0.00 55 1012.2
20260503203222 70 286 2.0 6.0 0.00 0.00 0.00 51 1012.2
20260503202427 69 185 2.0 9.0 0.00 0.00 0.00 52 1012.2
20260503201928 70 281 2.0 9.0 0.00 0.00 0.00 49 1012.2
20260503201427 70 288 3.0 9.0 0.00 0.00 0.00 50 1012.2
20260503200928 70 277 2.0 9.0 0.00 0.00 0.00 47 1012.2
20260503200426 71 298 1.0 7.0 0.00 0.00 0.00 47 1012.3
20260503195927 72 283 1.0 4.0 0.00 0.00 0.00 48 1012.5
20260503195427 71 310 1.0 4.0 0.00 0.00 0.00 47 1012.5
20260503194927 70 316 1.0 6.0 0.00 0.00 0.00 53 1012.5
20260503194427 70 268 1.0 6.0 0.00 0.00 0.00 47 1012.6
20260503193927 71 251 1.0 6.0 0.00 0.00 0.00 52 1012.7
20260503193429 69 338 2.0 7.0 0.00 0.00 0.00 49 1012.8
20260503193218 69 257 2.0 7.0 0.00 0.00 0.00 53 1012.8
20260503192717 69 271 2.0 6.0 0.00 0.00 0.00 53 1013.0
20260503191926 69 254 2.0 6.0 0.00 0.00 0.00 53 1013.0
20260503191428 69 297 2.0 9.0 0.00 0.00 0.00 50 1013.0
20260503190927 69 11 2.0 9.0 0.00 0.00 0.00 53 1013.0
20260503190427 69 318 1.0 5.0 0.00 0.00 0.00 56 1013.1
20260503190304 68 336 1.0 6.0 0.00 0.00 0.00 54 1013.1
20260503190258 68 285 2.0 6.0 0.00 0.00 0.00 56 1013.1
20260503184930 68 169 1.0 9.0 0.00 0.00 0.00 54 1013.1
20260503184431 67 301 2.0 9.0 0.00 0.00 0.00 60 1013.1
20260503183928 67 308 2.0 6.0 0.00 0.00 0.00 53 1013.2
20260503183438 67 288 1.0 6.0 0.00 0.00 0.00 56 1013.4
20260503183218 68 276 1.0 3.0 0.00 0.00 0.00 54 1013.4
20260503182428 68 329 1.0 4.0 0.00 0.00 0.00 54 1013.4
20260503181926 68 49 2.0 7.0 0.00 0.00 0.00 57 1013.4
20260503181815 68 275 1.0 7.0 0.00 0.00 0.00 54 1013.5
20260503181807 68 267 2.0 7.0 0.00 0.00 0.00 57 1013.5
20260503180426 68 263 1.0 7.0 0.00 0.00 0.00 54 1013.6
20260503180221 67 267 1.0 7.0 0.00 0.00 0.00 54 1013.6
20260503175424 67 294 1.0 7.0 0.00 0.00 0.00 58 1013.7
20260503174921 66 276 1.0 7.0 0.00 0.00 0.00 57 1013.7
20260503174713 66 42 0.0 3.0 0.00 0.00 0.00 60 1013.8
20260503173917 66 273 1.0 3.0 0.00 0.00 0.00 60 1013.9
20260503173416 65 272 1.0 7.0 0.00 0.00 0.00 61 1013.9
20260503172913 65 277 1.0 7.0 0.00 0.00 0.00 59 1013.9
20260503172412 65 355 1.0 5.0 0.00 0.00 0.00 61 1013.9
20260503171913 64 46 1.0 5.0 0.00 0.00 0.00 63 1013.9
20260503171407 63 269 1.0 5.0 0.00 0.00 0.00 66 1014.0
20260503171149 63 32 1.0 5.0 0.00 0.00 0.00 64 1014.0
20260503170650 63 14 1.0 5.0 0.00 0.00 0.00 65 1014.0
20260503150637 60 263 1.0 3.0 0.00 0.00 0.00 68 1014.3
20260503150131 60 355 1.0 3.0 0.00 0.00 0.00 68 1014.2
20260503131055 57 316 1.0 4.0 0.00 0.00 0.00 72 1013.7
20260503130837 58 260 1.0 6.0 0.00 0.00 0.00 72 1013.7
20260503110540 56 271 1.0 5.0 0.00 0.00 0.00 72 1013.9
20260503090505 52 315 0.0 0.0 0.00 0.00 0.00 82 1013.7
20260503081424 53 218 0.0 3.0 0.00 0.00 0.00 80 1013.6
20260503080918 53 289 0.0 3.0 0.00 0.00 0.00 80 1013.6
20260503080412 54 287 0.0 3.0 0.00 0.00 0.00 80 1013.5
20260503072830 55 289 1.0 3.0 0.00 0.00 0.00 78 1013.5
20260503072326 55 286 1.0 3.0 0.00 0.00 0.00 77 1013.5
20260503071818 55 284 1.0 3.0 0.00 0.00 0.00 77 1013.5
20260503071312 55 284 1.0 3.0 0.00 0.00 0.00 77 1013.5
20260503070806 55 284 0.0 3.0 0.00 0.00 0.00 77 1013.5
20260503070259 55 283 0.0 3.0 0.00 0.00 0.00 76 1013.5
20260503060149 57 277 1.0 2.0 0.00 0.00 0.00 68 1013.5
20260503054631 58 262 0.0 2.0 0.00 0.00 0.00 69 1013.4
20260503054125 57 262 0.0 2.0 0.00 0.00 0.00 69 1013.4
20260503053619 57 262 0.0 2.0 0.00 0.00 0.00 70 1013.4
20260503053113 57 262 0.0 2.0 0.00 0.00 0.00 69 1013.5
20260503052607 57 262 0.0 2.0 0.00 0.00 0.00 70 1013.5
20260503052101 57 262 0.0 2.0 0.00 0.00 0.00 70 1013.5
20260503051555 57 287 0.0 0.0 0.00 0.00 0.00 70 1013.4
20260503051049 57 287 0.0 0.0 0.00 0.00 0.00 70 1013.5
20260503050543 57 287 0.0 0.0 0.00 0.00 0.00 69 1013.4
20260503050038 58 287 0.0 0.0 0.00 0.00 0.00 69 1013.4
20260503045531 58 287 0.0 3.0 0.00 0.00 0.00 69 1013.4
20260503045026 58 287 0.0 4.0 0.00 0.00 0.00 68 1013.4
20260503044607 58 287 0.0 3.0 0.00 0.00 0.00 68 1013.3
20260503044555 58 287 0.0 4.0 0.00 0.00 0.00 68 1013.3
20260503043522 58 287 1.0 3.0 0.00 0.00 0.00 70 1013.3
20260503043023 58 285 0.0 2.0 0.00 0.00 0.00 70 1013.3
20260503042523 58 285 0.0 2.0 0.00 0.00 0.00 68 1013.2
20260503042022 58 284 0.0 0.0 0.00 0.00 0.00 70 1013.2
20260503041522 58 284 0.0 2.0 0.00 0.00 0.00 69 1013.2
20260503041258 58 284 0.0 3.0 0.00 0.00 0.00 70 1013.2
20260503040518 58 284 0.0 3.0 0.00 0.00 0.00 68 1013.2
20260503040018 58 293 0.0 3.0 0.00 0.00 0.00 70 1013.1
20260503035516 58 293 0.0 3.0 0.00 0.00 0.00 70 1013.0
20260503035015 58 293 1.0 3.0 0.00 0.00 0.00 70 1012.9
20260503034834 58 293 0.0 4.0 0.00 0.00 0.00 71 1012.9
20260503034014 59 293 0.0 4.0 0.00 0.00 0.00 70 1012.8
20260503033511 59 310 0.0 0.0 0.00 0.00 0.00 69 1012.8
20260503033302 59 310 0.0 0.0 0.00 0.00 0.00 71 1012.7
20260503032751 59 310 0.0 2.0 0.00 0.00 0.00 69 1012.7
20260503032009 60 310 0.0 2.0 0.00 0.00 0.00 70 1012.6
20260503031510 60 310 0.0 2.0 0.00 0.00 0.00 69 1012.6
20260503031003 60 310 0.0 2.0 0.00 0.00 0.00 69 1012.7
20260503030504 60 310 0.0 2.0 0.00 0.00 0.00 67 1012.7
20260503030003 61 310 0.0 3.0 0.00 0.00 0.00 66 1012.6
20260503025503 61 310 0.0 3.0 0.00 0.00 0.00 65 1012.6
20260503025003 62 311 0.0 3.0 0.00 0.00 0.00 63 1012.6
20260503024502 62 311 0.0 3.0 0.00 0.00 0.00 61 1012.5
20260503024249 63 313 1.0 4.0 0.00 0.00 0.00 62 1012.6
20260503023500 63 284 1.0 4.0 0.00 0.00 0.00 63 1012.6
20260503022957 63 276 0.0 3.0 0.00 0.00 0.00 60 1012.6
20260503022454 64 305 0.0 3.0 0.00 0.00 0.00 60 1012.7
20260503021955 64 36 1.0 2.0 0.00 0.00 0.00 62 1012.7
20260503021452 65 36 1.0 4.0 0.00 0.00 0.00 60 1012.6
20260503020952 65 301 1.0 4.0 0.00 0.00 0.00 60 1012.7
20260503020739 65 0 1.0 3.0 0.00 0.00 0.00 56 1012.7
20260503015949 66 304 1.0 4.0 0.00 0.00 0.00 54 1012.8
20260503015447 66 320 0.0 4.0 0.00 0.00 0.00 56 1012.8
20260503014948 67 78 0.0 3.0 0.00 0.00 0.00 53 1012.8
20260503014448 67 313 0.0 3.0 0.00 0.00 0.00 54 1012.8
20260503014241 68 342 0.0 3.0 0.00 0.00 0.00 55 1012.9
20260503013448 68 344 1.0 3.0 0.00 0.00 0.00 55 1012.9
20260503012947 68 0 1.0 3.0 0.00 0.00 0.00 54 1013.0
20260503012450 69 263 1.0 4.0 0.00 0.00 0.00 49 1013.0
20260503012238 69 22 1.0 4.0 0.00 0.00 0.00 48 1013.0
20260503011817 68 329 1.0 4.0 0.00 0.00 0.00 52 1013.1
20260503011811 69 332 1.0 4.0 0.00 0.00 0.00 53 1013.1
20260503010441 68 326 1.0 4.0 0.00 0.00 0.00 58 1013.1
20260503005943 69 244 1.0 3.0 0.00 0.00 0.00 53 1013.2
20260503005442 69 11 1.0 3.0 0.00 0.00 0.00 49 1013.2
20260503004943 69 331 1.0 3.0 0.00 0.00 0.00 53 1013.2
20260503004438 69 309 1.0 4.0 0.00 0.00 0.00 49 1013.2
20260503003937 69 201 1.0 4.0 0.00 0.00 0.00 49 1013.3
20260503003438 69 339 2.0 5.0 0.00 0.00 0.00 50 1013.2
20260503003220 69 355 2.0 6.0 0.00 0.00 0.00 48 1013.3
20260503002439 69 5 2.0 6.0 0.00 0.00 0.00 49 1013.2
20260503001933 69 331 2.0 5.0 0.00 0.00 0.00 49 1013.3
20260503001428 69 355 2.0 5.0 0.00 0.00 0.00 53 1013.4
20260503000919 68 355 1.0 5.0 0.00 0.00 0.00 50 1013.4
20260503000415 69 18 1.0 4.0 0.00 0.00 0.00 50 1013.5
20260502235944 68 240 2.0 5.0 0.00 0.00 0.00 51 1013.5
20260502235933 69 206 1.0 4.0 0.00 0.00 0.00 54 1013.5
20260502234855 68 298 2.0 7.0 0.00 0.00 0.00 51 1013.5
20260502234350 68 320 2.0 7.0 0.00 0.00 0.00 53 1013.7
20260502233843 68 347 2.0 6.0 0.00 0.00 0.00 51 1013.7
20260502233338 68 119 2.0 7.0 0.00 0.00 0.00 50 1013.7
20260502233120 69 333 2.0 7.0 0.00 0.00 0.00 50 1013.8
20260502232325 70 355 2.0 6.0 0.00 0.00 0.00 50 1013.8
20260502231820 69 198 2.0 6.0 0.00 0.00 0.00 51 1013.9
20260502231313 69 339 2.0 6.0 0.00 0.00 0.00 52 1014.0
20260502230808 69 244 2.0 6.0 0.00 0.00 0.00 53 1014.0
20260502230302 69 36 2.0 6.0 0.00 0.00 0.00 52 1014.1
20260502225755 69 303 2.0 7.0 0.00 0.00 0.00 54 1014.2
20260502225540 68 325 2.0 7.0 0.00 0.00 0.00 54 1014.3
20260502224744 68 28 2.0 7.0 0.00 0.00 0.00 55 1014.5
20260502224237 69 279 1.0 7.0 0.00 0.00 0.00 53 1014.5
20260502224024 69 290 1.0 6.0 0.00 0.00 0.00 53 1014.5
20260502223516 68 307 1.0 6.0 0.00 0.00 0.00 52 1014.6
20260502222720 68 186 1.0 7.0 0.00 0.00 0.00 54 1014.7
20260502222213 67 267 2.0 7.0 0.00 0.00 0.00 55 1014.8
20260502221707 68 154 1.0 7.0 0.00 0.00 0.00 54 1014.9
20260502221201 69 174 2.0 8.0 0.00 0.00 0.00 59 1014.9
20260502220733 67 277 2.0 6.0 0.00 0.00 0.00 58 1015.0
20260502220721 67 0 3.0 8.0 0.00 0.00 0.00 56 1015.0